Погода в Калмыковском

Россия / Волгоградская область     49°00′50″N   42°47′09″E
темп.,
°C
ветер,
м/с
пор.,
м/с
влажн.,
%
обл.,
%
осадки,
мм/ч
давл.,
гПа
погр.,
м
18 апреля, вс
вс1800:00+8з33675 0.0 102132
03:00+6ссз33735 0.0 102134
06:00+6с237493 0.0 102048
09:00+11ссв215692 0.0 1020436
12:00+14ююв0145100 0.0 10191565
15:00+15зюз124095 0.0 10181959
18:00+14с2352100 0.0 101873
21:00+12вюв236088 0.0 101847
19 апреля, пн
пн1900:00+11ю1176100 0.0 101838
03:00+10с2386100 1.1 1017128
06:00+9ссв3587100 0.5 1017205
09:00+10св368299 0.5 1017314
12:00+12всв337065 0.0 1016767
15:00+14всв3268100 0.1 10161027
18:00+12всв447840 0.1 1016335
21:00+9всв3694100 0.1 1016125
20 апреля, вт
вт2000:00+8всв4791100 0.0 1015151
03:00+10в599794 0.0 1014329
06:00+10в61195100 0.0 1013452
09:00+10в71494100 0.2 1012587
12:00+11в101796100 5.6 1010636
15:00+12вюв132090100 6.4 10081019
18:00+13юв132289100 0.2 10061146
21:00+13ююв101983100 1.6 10091194
21 апреля, ср
ср2100:00+12ююв11189198 0.3 1009623
03:00+10ю9158110 0.3 1011730
06:00+9ю81382100 0.1 1013757
09:00+10ю91381100 0.1 10141077
12:00+11юз7976100 0.3 10171018
15:00+14юз576383 0.5 10181338
18:00+12юз4776100 0.6 1019236
21:00+10ююз478222 0.9 1021126
22 апреля, чт
чт2200:00+8ююз37865 0.0 1022133
03:00+6юз33782 0.0 102340
06:00+6юз23825 0.0 102447
09:00+12сз22635 0.0 1025508
12:00+15сз124719 0.0 10251751
15:00+17ссз213959 0.0 10242128
18:00+15ссв345287 0.0 1025189
21:00+13ссв3558100 0.0 1025131